Change the Weather History Date:

Saturday, June 1, 2013

  Actual Average (KOFF) Record (KOFF)
Temperature  
Mean Temperature 59 °F -  
Max Temperature 63 °F 75 °F 91 °F (2002)
Min Temperature 55 °F 56 °F 39 °F (2012)
Degree Days  
Heating Degree Days 6    
Growing Degree Days 9 (Base 50)    
Moisture  
Dew Point 51 °F    
Average Humidity 75    
Maximum Humidity 92    
Minimum Humidity 53    
Precipitation  
Precipitation 0.01 in - - ()
Sea Level Pressure  
Sea Level Pressure 29.83 in    
Wind  
Wind Speed 15 mph (WNW)    
Max Wind Speed 24 mph    
Max Gust Speed 32 mph    
Visibility 9 miles    
Events Rain    
Averages and records for this station are not official NWS values.
T = Trace of Precipitation, MM = Missing Value Source: NWS Daily Summary

Daily Weather History Graph

Daily Weather History Graph

Search for Another Location

Airport or City:

Trip Planner

Search our weather history database for the weather conditions in past years. The results will help you decide how hot, cold, wet, or windy it might be!

Date:

Astronomy

Jun. 01, 2013 Rise Set
Actual Time 5:53 AM CDT 8:49 PM CDT
Civil Twilight 5:21 AM CDT 9:22 PM CDT
Nautical Twilight 4:39 AM CDT 10:04 PM CDT
Astronomical Twilight 3:51 AM CDT 10:52 PM CDT
Moon 1:53 AM CDT (6/1) 2:17 PM CDT (6/1)
Length of Visible Light 16h 01m
Length of Day
14h 55m
Last Quarter, 40% of the Moon is Illuminated
Jun 1
Last Quarter
Jun 8
New
Jun 16
First Quarter
Jun 23
Full
Jun 29
Last Quarter

Hourly Weather History & Observations

Time (CDT) Temp. Dew Point Humidity Pressure Visibility Wind Dir Wind Speed Gust Speed Precip Events Conditions
12:15 AM 63.1 °F 45.5 °F 53% 29.74 in 10.0 mi WSW 16.1 mph 26.5 mph N/A   Clear
12:35 AM 62.6 °F 45.5 °F 54% 29.72 in 10.0 mi West 15.0 mph 21.9 mph N/A   Clear
12:55 AM 60.8 °F 46.6 °F 59% 29.72 in 10.0 mi West 16.1 mph 20.7 mph N/A   Clear
1:15 AM 60.4 °F 46.6 °F 60% 29.72 in 10.0 mi West 17.3 mph 21.9 mph N/A   Clear
1:35 AM 60.3 °F 46.6 °F 61% 29.71 in 10.0 mi West 15.0 mph 20.7 mph N/A   Clear
1:55 AM 59.2 °F 46.9 °F 64% 29.70 in 10.0 mi West 12.7 mph 18.4 mph N/A   Clear
2:15 AM 58.3 °F 47.3 °F 67% 29.70 in 10.0 mi West 13.8 mph 18.4 mph N/A   Clear
2:35 AM 59.0 °F 46.8 °F 64% 29.69 in 10.0 mi West 12.7 mph - N/A   Clear
2:55 AM 59.0 °F 46.8 °F 64% 29.69 in 10.0 mi West 13.8 mph - N/A   Clear
3:15 AM 58.1 °F 47.3 °F 67% 29.69 in 10.0 mi West 15.0 mph 20.7 mph N/A   Clear
3:35 AM 57.7 °F 46.9 °F 67% 29.69 in 10.0 mi West 13.8 mph 19.6 mph N/A   Clear
3:55 AM 58.1 °F 46.9 °F 66% 29.69 in 10.0 mi West 13.8 mph 20.7 mph N/A   Clear
4:15 AM 57.4 °F 47.3 °F 69% 29.68 in 10.0 mi West 12.7 mph 17.3 mph N/A   Clear
4:35 AM 57.6 °F 47.5 °F 69% 29.70 in 10.0 mi West 13.8 mph 21.9 mph N/A   Clear
4:55 AM 57.2 °F 47.5 °F 70% 29.70 in 10.0 mi West 11.5 mph - N/A   Clear
5:15 AM 56.3 °F 47.7 °F 73% 29.71 in 10.0 mi WSW 8.1 mph - N/A   Clear
5:35 AM 56.3 °F 47.5 °F 72% 29.72 in 10.0 mi West 10.4 mph - N/A   Clear
5:55 AM 55.6 °F 47.7 °F 75% 29.71 in 10.0 mi West 6.9 mph - N/A   Clear
6:15 AM 55.2 °F 48.4 °F 78% 29.71 in 10.0 mi West 9.2 mph - N/A   Scattered Clouds
6:35 AM 56.5 °F 48.7 °F 75% 29.72 in 10.0 mi West 9.2 mph - N/A   Mostly Cloudy
6:55 AM 57.2 °F 48.6 °F 73% 29.72 in 10.0 mi West 15.0 mph 19.6 mph N/A   Overcast
7:15 AM 57.2 °F 49.1 °F 74% 29.72 in 10.0 mi West 13.8 mph 18.4 mph N/A   Overcast
7:35 AM 57.4 °F 49.5 °F 75% 29.72 in 10.0 mi West 12.7 mph 17.3 mph N/A   Overcast
7:55 AM 58.1 °F 50.4 °F 75% 29.73 in 10.0 mi West 15.0 mph 20.7 mph N/A   Overcast
8:15 AM 58.6 °F 50.9 °F 75% 29.73 in 10.0 mi West 15.0 mph - N/A   Overcast
8:35 AM 60.1 °F 52.0 °F 75% 29.74 in 10.0 mi West 16.1 mph 19.6 mph N/A   Overcast
8:55 AM 60.1 °F 52.3 °F 76% 29.74 in 10.0 mi West 13.8 mph 23.0 mph N/A   Overcast
9:15 AM 61.7 °F 53.6 °F 75% 29.75 in 10.0 mi WNW 17.3 mph 23.0 mph N/A   Overcast
9:35 AM 61.7 °F 53.8 °F 75% 29.76 in 10.0 mi WNW 16.1 mph 25.3 mph N/A   Overcast
9:55 AM 62.6 °F 54.7 °F 75% 29.76 in 10.0 mi WNW 16.1 mph 24.2 mph N/A   Overcast
10:15 AM 61.7 °F 54.9 °F 78% 29.76 in 7.0 mi WNW 17.3 mph 25.3 mph N/A   Overcast
10:35 AM 60.4 °F 54.3 °F 80% 29.77 in 7.0 mi WNW 15.0 mph 32.2 mph N/A   Overcast
10:55 AM 63.1 °F 53.6 °F 71% 29.77 in 10.0 mi NW 24.2 mph 27.6 mph N/A   Overcast
11:15 AM 61.0 °F 53.1 °F 75% 29.79 in 10.0 mi WNW 18.4 mph 24.2 mph N/A   Overcast
11:35 AM 60.4 °F 52.5 °F 75% 29.80 in 7.0 mi WNW 19.6 mph 26.5 mph N/A   Overcast
11:55 AM 60.4 °F 52.9 °F 76% 29.81 in 7.0 mi WNW 15.0 mph 25.3 mph N/A   Overcast
12:15 PM 58.8 °F 55.0 °F 87% 29.82 in 2.5 mi NW 12.7 mph 23.0 mph N/A   Overcast
12:35 PM 58.5 °F 55.0 °F 88% 29.83 in 3.0 mi West 16.1 mph 21.9 mph N/A   Overcast
12:55 PM 59.4 °F 53.1 °F 80% 29.83 in 10.0 mi WNW 17.3 mph 24.2 mph N/A   Overcast
1:15 PM 59.7 °F 54.0 °F 81% 29.84 in 7.0 mi WNW 20.7 mph 26.5 mph N/A Rain Light Rain
1:35 PM 59.0 °F 55.6 °F 88% 29.85 in 5.0 mi WNW 15.0 mph 21.9 mph N/A Rain Light Rain
1:55 PM 59.0 °F 55.6 °F 88% 29.86 in 7.0 mi NW 11.5 mph 19.6 mph N/A Rain Light Rain
2:15 PM 58.5 °F 56.1 °F 92% 29.86 in 4.0 mi WNW 16.1 mph 21.9 mph N/A Rain Light Rain
2:35 PM 58.5 °F 54.9 °F 88% 29.86 in 5.0 mi NW 21.9 mph 28.8 mph 0.01 in   Overcast
2:55 PM 58.3 °F 55.0 °F 89% 29.87 in 10.0 mi WNW 16.1 mph 21.9 mph 0.01 in   Overcast
3:15 PM 59.0 °F 54.3 °F 84% 29.87 in 10.0 mi WNW 16.1 mph 24.2 mph N/A   Overcast
3:35 PM 59.9 °F 55.4 °F 85% 29.88 in 7.0 mi NW 16.1 mph 20.7 mph N/A   Overcast
3:55 PM 58.5 °F 54.5 °F 87% 29.89 in 10.0 mi WNW 11.5 mph - N/A   Overcast
4:15 PM 60.1 °F 54.9 °F 83% 29.89 in 10.0 mi NW 15.0 mph 18.4 mph N/A   Overcast
4:35 PM 61.3 °F 53.8 °F 76% 29.89 in 10.0 mi NW 18.4 mph 26.5 mph N/A   Overcast
4:55 PM 60.6 °F 52.5 °F 75% 29.90 in 10.0 mi NNW 17.3 mph 21.9 mph N/A   Overcast
5:15 PM 61.7 °F 52.5 °F 72% 29.90 in 10.0 mi NNW 17.3 mph - N/A   Overcast
5:35 PM 61.3 °F 52.7 °F 73% 29.91 in 10.0 mi NW 17.3 mph 23.0 mph N/A   Overcast
5:55 PM 60.8 °F 52.0 °F 73% 29.92 in 10.0 mi WNW 19.6 mph 25.3 mph N/A   Overcast
6:15 PM 60.3 °F 51.4 °F 73% 29.93 in 10.0 mi NW 16.1 mph 25.3 mph N/A   Overcast
6:35 PM 59.9 °F 51.1 °F 73% 29.93 in 10.0 mi NW 19.6 mph 25.3 mph N/A   Overcast
6:55 PM 59.9 °F 50.7 °F 72% 29.93 in 10.0 mi NW 19.6 mph 24.2 mph N/A   Overcast
7:15 PM 59.2 °F 50.5 °F 73% 29.94 in 10.0 mi NW 16.1 mph 26.5 mph N/A   Overcast
7:35 PM 59.0 °F 50.7 °F 74% 29.95 in 10.0 mi NW 15.0 mph - N/A   Overcast
7:55 PM 58.3 °F 50.5 °F 75% 29.97 in 10.0 mi NW 13.8 mph 19.6 mph N/A   Overcast
8:15 PM 57.7 °F 49.8 °F 75% 29.97 in 10.0 mi NW 16.1 mph - N/A   Overcast
8:35 PM 57.4 °F 49.8 °F 76% 29.98 in 10.0 mi NW 15.0 mph - N/A   Overcast
8:55 PM 57.2 °F 49.8 °F 76% 29.99 in 10.0 mi NW 13.8 mph 18.4 mph N/A   Overcast
9:15 PM 56.7 °F 49.3 °F 76% 30.00 in 10.0 mi NW 17.3 mph 20.7 mph N/A   Overcast
9:35 PM 56.3 °F 49.3 °F 77% 30.00 in 10.0 mi NW 16.1 mph 20.7 mph N/A   Overcast
9:55 PM 55.9 °F 48.4 °F 76% 30.00 in 10.0 mi NW 18.4 mph 23.0 mph N/A   Overcast
10:15 PM 55.8 °F 48.2 °F 76% 30.01 in 10.0 mi NW 16.1 mph 25.3 mph N/A   Overcast
10:35 PM 55.6 °F 48.4 °F 77% 30.02 in 10.0 mi NW 12.7 mph 18.4 mph N/A   Overcast
10:55 PM 55.4 °F 48.2 °F 77% 30.02 in 10.0 mi NNW 12.7 mph 17.3 mph N/A   Overcast
11:15 PM 55.4 °F 48.4 °F 77% 30.02 in 10.0 mi NW 13.8 mph - N/A   Overcast
11:35 PM 55.0 °F 48.6 °F 79% 30.03 in 10.0 mi NW 11.5 mph - N/A   Overcast
11:55 PM 55.0 °F 48.4 °F 78% 30.03 in 10.0 mi NNW 10.4 mph 17.3 mph N/A   Overcast